Tracking 35237 objects as of 6-Sep-2026
HD Live streaming from Space Station
objects crossing your sky now

SL-4 R/B


SL-4 R/B is no longer on orbit


NORAD ID: 9939
Int'l Code: 1977-030B
Launch date: April 26, 1977
Source: Commonwealth of Independent States (former USSR) (CIS)
Launch site: PLESETSK MISSILE AND SPACE COMPLEX (PKMTR)
Decay date: 1977-05-01

Note: This is a ROCKET BODY
Your satellite tracking list
Your tracking list is empty




NASA's NSSDC Master Catalog

Two Line Element Set (TLE):
1 09939U 77030  B 77121.17544485  .13250037 +00000-0 +00000-0 0  9994
2 09939 067.1175 046.5668 0025872 064.7179 297.3184 16.43900299000740
Source of the keplerian elements: AFSPC